FW1394 Weather Reports


Display with metric or nautical units.
time (UTC)temp
F
wind
direction
speed
MPH
gust
MPH
rain 1hr
in
rain 24hr
in
rain mn
in
humidity
%
barometer
mb
20220702225545 62 131 3.0 9.0 0.00 0.00 0.00 71 1012.6
20220702225041 62 206 3.0 10.0 0.00 0.00 0.00 72 1012.8
20220702224601 62 189 4.0 10.0 0.00 0.00 0.00 71 1012.8
20220702224042 62 212 4.0 12.0 0.00 0.00 0.00 69 1012.7
20220702223541 63 192 5.0 12.0 0.00 0.00 0.00 68 1012.8
20220702223105 64 265 4.0 11.0 0.00 0.00 0.00 67 1012.8
20220702222541 64 225 4.0 9.0 0.00 0.00 0.00 69 1012.9
20220702222040 64 215 4.0 11.0 0.00 0.00 0.00 68 1012.9
20220702221606 65 239 4.0 11.0 0.00 0.00 0.00 66 1012.9
20220702221041 65 196 3.0 8.0 0.00 0.00 0.00 69 1012.9
20220702220542 64 242 3.0 9.0 0.00 0.00 0.00 68 1013.0
20220702220104 64 176 3.0 9.0 0.00 0.00 0.00 69 1013.0
20220702215541 64 216 3.0 12.0 0.00 0.00 0.00 70 1013.0
20220702215041 63 138 4.0 12.0 0.00 0.00 0.00 70 1013.1
20220702214555 63 230 3.0 11.0 0.00 0.00 0.00 71 1013.2
20220702214038 62 278 5.0 13.0 0.00 0.00 0.00 72 1013.1
20220702213540 62 252 4.0 13.0 0.00 0.00 0.00 72 1013.4
20220702213059 61 229 3.0 11.0 0.00 0.00 0.00 72 1013.3
20220702212544 61 168 3.0 8.0 0.00 0.00 0.00 73 1013.3
20220702212046 61 160 4.0 10.0 0.00 0.00 0.00 74 1013.4
20220702211553 61 234 4.0 11.0 0.00 0.00 0.00 73 1013.5
20220702211037 60 215 3.0 11.0 0.00 0.00 0.00 73 1013.5
20220702210538 61 155 3.0 11.0 0.00 0.00 0.00 73 1013.4
20220702210101 60 251 4.0 11.0 0.00 0.00 0.00 73 1013.5
20220702205541 61 215 4.0 9.0 0.00 0.00 0.00 73 1013.6
20220702205043 61 229 3.0 12.0 0.00 0.00 0.00 73 1013.7
20220702204601 61 222 3.0 12.0 0.00 0.00 0.00 73 1013.8
20220702204043 60 221 4.0 11.0 0.00 0.00 0.00 74 1013.8
20220702203541 60 224 4.0 14.0 0.00 0.00 0.00 76 1013.9
20220702203100 59 233 4.0 14.0 0.00 0.00 0.00 76 1013.9
20220702202540 59 181 5.0 14.0 0.00 0.00 0.00 75 1014.0
20220702202041 59 284 6.0 13.0 0.00 0.00 0.00 75 1014.1
20220702201604 60 232 6.0 13.0 0.00 0.00 0.00 74 1014.1
20220702201040 60 148 4.0 13.0 0.00 0.00 0.00 74 1014.1
20220702200543 60 198 3.0 11.0 0.00 0.00 0.00 74 1014.2
20220702200053 60 203 5.0 12.0 0.00 0.00 0.00 73 1014.1
20220702195540 60 223 5.0 12.0 0.00 0.00 0.00 74 1014.1
20220702195041 60 229 3.0 13.0 0.00 0.00 0.00 75 1014.1
20220702194610 59 205 5.0 16.0 0.00 0.00 0.00 75 1014.0
20220702194040 59 257 8.0 16.0 0.00 0.00 0.00 75 1014.1
20220702193539 60 226 5.0 15.0 0.00 0.00 0.00 75 1014.2
20220702193054 60 227 5.0 12.0 0.00 0.00 0.00 74 1014.2
20220702192540 60 274 5.0 17.0 0.00 0.00 0.00 74 1014.3
20220702192042 60 225 8.0 17.0 0.00 0.00 0.00 74 1014.4
20220702191601 60 155 6.0 16.0 0.00 0.00 0.00 74 1014.3
20220702191039 60 209 6.0 16.0 0.00 0.00 0.00 74 1014.4
20220702190540 61 254 6.0 12.0 0.00 0.00 0.00 72 1014.4
20220702190102 61 196 5.0 11.0 0.00 0.00 0.00 73 1014.6
20220702185540 61 323 4.0 12.0 0.00 0.00 0.00 73 1014.5
20220702185044 61 223 5.0 13.0 0.00 0.00 0.00 74 1014.5
20220702184552 60 198 4.0 13.0 0.00 0.00 0.00 75 1014.6
20220702184045 60 140 5.0 19.0 0.00 0.00 0.00 75 1014.7
20220702183541 60 233 6.0 19.0 0.00 0.00 0.00 75 1014.6
20220702183058 61 239 5.0 10.0 0.00 0.00 0.00 74 1014.7
20220702182540 60 208 2.0 12.0 0.00 0.00 0.00 76 1014.7
20220702182040 60 223 4.0 12.0 0.00 0.00 0.00 76 1014.8
20220702181557 60 163 4.0 11.0 0.00 0.00 0.00 76 1014.9
20220702181041 59 148 5.0 11.0 0.00 0.00 0.00 77 1014.9
20220702180541 59 198 6.0 11.0 0.00 0.00 0.00 77 1015.0
20220702180116 60 90 4.0 10.0 0.00 0.00 0.00 75 1015.0
20220702175541 60 223 4.0 9.0 0.00 0.00 0.00 75 1015.0
20220702175040 60 216 3.0 12.0 0.00 0.00 0.00 75 1015.0
20220702174559 60 211 5.0 12.0 0.00 0.00 0.00 75 1015.0
20220702174057 60 270 3.0 10.0 0.00 0.00 0.00 76 1015.1
20220702173540 60 155 4.0 10.0 0.00 0.00 0.00 74 1015.2
20220702173103 60 212 4.0 8.0 0.00 0.00 0.00 75 1015.2
20220702172537 61 206 3.0 7.0 0.00 0.00 0.00 74 1015.3
20220702172039 60 145 3.0 7.0 0.00 0.00 0.00 75 1015.3
20220702171603 60 153 4.0 8.0 0.00 0.00 0.00 75 1015.2
20220702171041 60 232 3.0 8.0 0.00 0.00 0.00 75 1015.3
20220702170538 60 144 3.0 12.0 0.00 0.00 0.00 76 1015.2
20220702170059 59 149 5.0 12.0 0.00 0.00 0.00 76 1015.3
20220702165540 59 225 4.0 13.0 0.00 0.00 0.00 77 1015.3
20220702165040 59 192 4.0 13.0 0.00 0.00 0.00 76 1015.4
20220702164554 60 172 3.0 10.0 0.00 0.00 0.00 76 1015.4
20220702164040 60 184 2.0 9.0 0.00 0.00 0.00 77 1015.4
20220702163544 59 237 4.0 9.0 0.00 0.00 0.00 78 1015.4
20220702163055 59 274 4.0 8.0 0.00 0.00 0.00 77 1015.5
20220702162539 59 202 3.0 10.0 0.00 0.00 0.00 78 1015.6
20220702162038 59 231 3.0 10.0 0.00 0.00 0.00 79 1015.5
20220702161603 59 246 3.0 10.0 0.00 0.00 0.00 78 1015.5
20220702161040 58 145 2.0 8.0 0.00 0.00 0.00 79 1015.6
20220702160546 58 153 3.0 8.0 0.00 0.00 0.00 80 1015.6
20220702160106 58 161 2.0 8.0 0.00 0.00 0.00 79 1015.6
20220702155540 58 233 3.0 8.0 0.00 0.00 0.00 79 1015.6
20220702155042 58 214 3.0 8.0 0.00 0.00 0.00 81 1015.6
20220702154600 57 150 2.0 8.0 0.00 0.00 0.00 82 1015.6
20220702154040 56 163 3.0 8.0 0.00 0.00 0.00 81 1015.7
20220702153541 57 143 3.0 8.0 0.00 0.00 0.00 81 1015.7
20220702153058 57 149 3.0 8.0 0.00 0.00 0.00 81 1015.7
20220702152540 57 145 2.0 7.0 0.00 0.00 0.00 81 1015.8
20220702152039 57 238 1.0 6.0 0.00 0.00 0.00 81 1015.7
20220702151607 57 203 2.0 7.0 0.00 0.00 0.00 81 1015.8
20220702151038 57 203 2.0 7.0 0.00 0.00 0.00 81 1015.8
20220702150542 57 220 1.0 7.0 0.00 0.00 0.00 81 1015.8
20220702150105 57 252 1.0 7.0 0.00 0.00 0.00 82 1015.8
20220702145542 57 158 2.0 8.0 0.00 0.00 0.00 82 1015.8
20220702145040 56 182 2.0 8.0 0.00 0.00 0.00 83 1015.8
20220702144551 56 154 2.0 5.0 0.00 0.00 0.00 83 1015.7
20220702144040 56 116 1.0 9.0 0.00 0.00 0.00 84 1015.8
20220702143540 55 252 4.0 9.0 0.00 0.00 0.00 84 1015.8
20220702143103 55 132 1.0 11.0 0.00 0.00 0.00 85 1015.8
20220702142542 55 180 3.0 11.0 0.00 0.00 0.00 84 1015.7
20220702142040 55 172 1.0 11.0 0.00 0.00 0.00 85 1015.7
20220702141608 55 221 1.0 11.0 0.00 0.00 0.00 86 1015.7
20220702141041 55 243 2.0 7.0 0.00 0.00 0.00 86 1015.6
20220702140541 54 266 2.0 9.0 0.00 0.00 0.00 87 1015.6
20220702140117 54 243 3.0 9.0 0.00 0.00 0.00 87 1015.6
20220702135540 54 196 2.0 8.0 0.00 0.00 0.00 88 1015.6
20220702135041 54 148 2.0 6.0 0.00 0.00 0.00 88 1015.7
20220702134611 53 0 1.0 9.0 0.00 0.00 0.00 89 1015.8
20220702134040 53 142 1.0 9.0 0.00 0.00 0.00 90 1015.7
20220702133540 53 225 2.0 9.0 0.00 0.00 0.00 90 1015.7
20220702133109 52 198 2.0 7.0 0.00 0.00 0.00 90 1015.7
20220702132539 52 235 1.0 5.0 0.00 0.00 0.00 91 1015.6
20220702132040 52 164 2.0 5.0 0.00 0.00 0.00 91 1015.7
20220702131617 52 159 1.0 4.0 0.00 0.00 0.00 91 1015.8
20220702131041 52 0 1.0 4.0 0.00 0.00 0.00 91 1015.8
20220702130540 52 0 0.0 4.0 0.00 0.00 0.00 91 1015.8
20220702130108 51 189 1.0 4.0 0.00 0.00 0.00 91 1015.8
20220702125541 52 149 0.0 9.0 0.00 0.00 0.00 91 1015.7
20220702125037 52 146 2.0 9.0 0.00 0.00 0.00 92 1015.8
20220702124603 51 196 1.0 4.0 0.00 0.00 0.00 92 1015.8
20220702124044 51 218 0.0 3.0 0.00 0.00 0.00 92 1015.8
20220702123543 51 234 0.0 3.0 0.00 0.00 0.00 92 1015.8
20220702123100 51 0 0.0 4.0 0.00 0.00 0.00 92 1015.7
20220702122543 51 0 1.0 5.0 0.00 0.00 0.00 92 1015.6
20220702122041 51 115 2.0 5.0 0.00 0.00 0.00 92 1015.7
20220702121604 51 150 0.0 2.0 0.00 0.00 0.00 92 1015.7
20220702121041 51 0 0.0 5.0 0.00 0.00 0.00 92 1015.7
20220702120540 51 0 2.0 5.0 0.00 0.00 0.00 92 1015.7
20220702120100 51 183 1.0 4.0 0.00 0.00 0.00 92 1015.7
20220702115541 51 142 0.0 5.0 0.00 0.00 0.00 92 1015.7
20220702115040 51 161 1.0 5.0 0.00 0.00 0.00 92 1015.7
20220702114611 51 173 1.0 3.0 0.00 0.00 0.00 92 1015.8
20220702114040 51 142 0.0 5.0 0.00 0.00 0.00 92 1015.6
20220702113541 51 225 0.0 5.0 0.00 0.00 0.00 92 1015.6
20220702113055 51 119 0.0 4.0 0.00 0.00 0.00 92 1015.6
20220702112540 51 0 1.0 4.0 0.00 0.00 0.00 92 1015.6
20220702112043 51 149 0.0 4.0 0.00 0.00 0.00 92 1015.6
20220702111554 51 160 0.0 4.0 0.00 0.00 0.00 92 1015.6
20220702111046 51 163 2.0 5.0 0.00 0.00 0.00 92 1015.6
20220702110542 51 138 1.0 5.0 0.00 0.00 0.00 92 1015.6
20220702110109 51 158 0.0 5.0 0.00 0.00 0.00 92 1015.6
20220702105546 51 215 1.0 5.0 0.00 0.00 0.00 92 1015.5
20220702105044 51 150 0.0 2.0 0.00 0.00 0.00 92 1015.7
20220702104603 51 151 0.0 2.0 0.00 0.00 0.00 92 1015.7
20220702104041 51 236 0.0 4.0 0.00 0.00 0.00 92 1015.7
20220702103542 51 0 0.0 7.0 0.00 0.00 0.00 92 1015.7
20220702103104 51 0 1.0 7.0 0.00 0.00 0.00 92 1015.7
20220702102544 51 228 1.0 5.0 0.00 0.00 0.00 92 1015.7
20220702102043 51 271 0.0 5.0 0.00 0.00 0.00 91 1015.8
20220702101607 51 0 2.0 5.0 0.00 0.00 0.00 92 1015.7
20220702101043 51 202 1.0 4.0 0.00 0.00 0.00 92 1015.9
20220702100543 51 153 0.0 4.0 0.00 0.00 0.00 92 1015.9
20220702100112 51 246 0.0 3.0 0.00 0.00 0.00 91 1015.9
20220702095544 51 159 0.0 4.0 0.00 0.00 0.00 91 1015.9
20220702095041 51 149 1.0 4.0 0.00 0.00 0.00 91 1015.9
20220702094608 51 153 0.0 4.0 0.00 0.00 0.00 91 1015.9
20220702094043 51 0 0.0 3.0 0.00 0.00 0.00 91 1015.9
20220702093541 51 157 1.0 4.0 0.00 0.00 0.00 91 1015.9
20220702093103 52 0 1.0 4.0 0.00 0.00 0.00 91 1015.9
20220702092544 52 257 0.0 4.0 0.00 0.00 0.00 91 1015.9
20220702092043 52 0 1.0 4.0 0.00 0.00 0.00 91 1015.9
20220702091559 52 213 0.0 6.0 0.00 0.00 0.00 91 1015.9
20220702091044 52 246 2.0 8.0 0.00 0.00 0.00 91 1016.0
20220702090542 52 227 2.0 10.0 0.00 0.00 0.00 91 1016.0
20220702090103 52 144 2.0 10.0 0.00 0.00 0.00 91 1016.0
20220702085542 52 139 1.0 6.0 0.00 0.00 0.00 91 1015.9
20220702085041 52 0 2.0 6.0 0.00 0.00 0.00 91 1015.9
20220702084602 52 204 2.0 7.0 0.00 0.00 0.00 91 1015.9
20220702084042 52 138 2.0 7.0 0.00 0.00 0.00 91 1015.9
20220702083540 52 136 0.0 4.0 0.00 0.00 0.00 91 1016.0
20220702083108 52 141 1.0 7.0 0.00 0.00 0.00 91 1016.0
20220702082542 52 244 1.0 8.0 0.00 0.00 0.00 91 1016.0
20220702082046 52 225 1.0 8.0 0.00 0.00 0.00 91 1015.9
20220702081600 52 138 2.0 10.0 0.00 0.00 0.00 91 1015.9
20220702081046 52 198 3.0 10.0 0.00 0.00 0.00 91 1015.9
20220702080544 52 140 2.0 4.0 0.00 0.00 0.00 90 1016.0
20220702080058 52 159 0.0 4.0 0.00 0.00 0.00 90 1016.0
20220702075540 52 216 0.0 8.0 0.00 0.00 0.00 90 1016.1
20220702075037 52 203 2.0 8.0 0.00 0.00 0.00 90 1016.1
20220702074556 52 148 3.0 10.0 0.00 0.00 0.00 90 1016.1
20220702074038 52 147 3.0 10.0 0.00 0.00 0.00 90 1016.1
20220702073538 52 200 3.0 10.0 0.00 0.00 0.00 90 1016.1
20220702073056 52 151 3.0 11.0 0.00 0.00 0.00 90 1016.0
20220702072539 52 148 4.0 14.0 0.00 0.00 0.00 90 1016.1
20220702072040 52 151 4.0 15.0 0.00 0.00 0.00 90 1016.0
20220702071558 53 232 4.0 15.0 0.00 0.00 0.00 90 1016.0
20220702071040 53 219 5.0 13.0 0.00 0.00 0.00 90 1016.1
20220702070541 53 190 6.0 18.0 0.00 0.00 0.00 90 1016.1
20220702070107 53 176 6.0 18.0 0.00 0.00 0.00 89 1016.1
20220702065544 53 244 6.0 14.0 0.00 0.00 0.00 89 1016.2
20220702065037 53 240 5.0 14.0 0.00 0.00 0.00 89 1016.1
20220702064606 53 246 5.0 13.0 0.00 0.00 0.00 89 1016.2
20220702064039 53 200 6.0 14.0 0.00 0.00 0.00 89 1016.2
20220702063540 53 88 6.0 15.0 0.00 0.00 0.00 89 1016.2
20220702063057 53 218 6.0 15.0 0.00 0.00 0.00 89 1016.2
20220702062539 53 225 6.0 15.0 0.00 0.00 0.00 89 1016.2
20220702062040 53 277 5.0 13.0 0.00 0.00 0.00 89 1016.3
20220702061555 53 187 5.0 12.0 0.00 0.00 0.00 89 1016.2
20220702061038 53 210 6.0 13.0 0.00 0.00 0.00 88 1016.2
20220702060542 53 125 6.0 13.0 0.00 0.00 0.00 88 1016.2
20220702060108 53 216 6.0 12.0 0.00 0.00 0.00 88 1016.2
20220702055539 54 242 4.0 10.0 0.00 0.00 0.00 88 1016.2
20220702055042 54 200 4.0 10.0 0.00 0.00 0.00 87 1016.3
20220702054557 54 173 3.0 9.0 0.00 0.00 0.00 87 1016.3
20220702054042 54 231 3.0 9.0 0.00 0.00 0.00 86 1016.4
20220702053540 54 169 2.0 8.0 0.00 0.00 0.00 86 1016.5
20220702053057 55 133 3.0 8.0 0.00 0.00 0.00 85 1016.5
20220702052543 55 221 3.0 8.0 0.00 0.00 0.00 84 1016.4
20220702052041 55 0 3.0 8.0 0.00 0.00 0.00 84 1016.4
20220702051553 55 142 3.0 8.0 0.00 0.00 0.00 83 1016.5
20220702051043 56 184 3.0 7.0 0.00 0.00 0.00 83 1016.4
20220702050542 56 182 2.0 5.0 0.00 0.00 0.00 82 1016.4
20220702050057 56 165 2.0 5.0 0.00 0.00 0.00 81 1016.3
20220702045541 56 150 2.0 4.0 0.00 0.00 0.00 80 1016.4
20220702045038 57 136 2.0 4.0 0.00 0.00 0.00 80 1016.3
20220702044600 57 141 2.0 4.0 0.00 0.00 0.00 79 1016.4
20220702044041 57 157 2.0 4.0 0.00 0.00 0.00 79 1016.3
20220702043538 57 132 1.0 5.0 0.00 0.00 0.00 79 1016.4
20220702043051 57 112 1.0 5.0 0.00 0.00 0.00 78 1016.3
20220702042541 58 156 2.0 5.0 0.00 0.00 0.00 78 1016.3
20220702042041 58 146 1.0 5.0 0.00 0.00 0.00 77 1016.2
20220702041555 58 147 1.0 6.0 0.00 0.00 0.00 77 1016.2
20220702041045 59 167 2.0 8.0 0.00 0.00 0.00 77 1016.2
20220702040539 59 154 2.0 9.0 0.00 0.00 0.00 76 1016.1
20220702040115 59 222 1.0 9.0 0.00 0.00 0.00 76 1016.3
20220702035538 60 167 2.0 7.0 0.00 0.00 0.00 75 1016.2
20220702035038 60 0 2.0 11.0 0.00 0.00 0.00 75 1016.2
20220702034601 60 167 4.0 11.0 0.00 0.00 0.00 74 1016.2
20220702034043 61 252 4.0 9.0 0.00 0.00 0.00 74 1016.2
20220702033539 61 85 4.0 12.0 0.00 0.00 0.00 73 1016.2
20220702033104 61 184 4.0 12.0 0.00 0.00 0.00 73 1016.2
20220702032538 61 234 4.0 12.0 0.00 0.00 0.00 73 1016.2
20220702032037 62 205 2.0 10.0 0.00 0.00 0.00 73 1016.2
20220702031553 62 209 4.0 10.0 0.00 0.00 0.00 72 1016.3
20220702031039 62 233 3.0 12.0 0.00 0.00 0.00 72 1016.3
20220702030537 63 205 4.0 12.0 0.00 0.00 0.00 72 1016.2
20220702030056 63 223 2.0 12.0 0.00 0.00 0.00 71 1016.2
20220702025541 64 252 3.0 9.0 0.00 0.00 0.00 71 1016.2
20220702025040 64 188 4.0 10.0 0.00 0.00 0.00 70 1016.3
20220702024602 64 212 3.0 10.0 0.00 0.00 0.00 70 1016.2
20220702024040 65 220 4.0 12.0 0.00 0.00 0.00 69 1016.2
20220702023540 65 233 4.0 12.0 0.00 0.00 0.00 69 1016.2
20220702023055 66 209 3.0 12.0 0.00 0.00 0.00 68 1016.2
20220702022537 66 233 4.0 12.0 0.00 0.00 0.00 67 1016.2
20220702022042 67 201 3.0 9.0 0.00 0.00 0.00 67 1016.1
20220702021559 67 158 3.0 8.0 0.00 0.00 0.00 67 1016.2
20220702021041 67 183 3.0 8.0 0.00 0.00 0.00 67 1016.1
20220702020539 67 221 3.0 7.0 0.00 0.00 0.00 67 1016.1
20220702020105 67 213 3.0 7.0 0.00 0.00 0.00 67 1016.1
20220702015544 67 150 3.0 7.0 0.00 0.00 0.00 67 1016.2
20220702015040 67 147 4.0 7.0 0.00 0.00 0.00 67 1016.3
20220702014550 67 223 2.0 8.0 0.00 0.00 0.00 67 1016.3
20220702014038 67 255 4.0 8.0 0.00 0.00 0.00 67 1016.3
20220702013540 67 244 1.0 9.0 0.00 0.00 0.00 67 1016.3
20220702013101 67 217 4.0 13.0 0.00 0.00 0.00 66 1016.4
20220702012537 68 246 3.0 13.0 0.00 0.00 0.00 66 1016.3
20220702012043 68 221 2.0 7.0 0.00 0.00 0.00 66 1016.4
20220702011600 68 221 2.0 7.0 0.00 0.00 0.00 66 1016.3
20220702011041 68 194 3.0 10.0 0.00 0.00 0.00 66 1016.4
20220702010544 68 217 4.0 10.0 0.00 0.00 0.00 66 1016.4
20220702010104 68 206 2.0 8.0 0.00 0.00 0.00 66 1016.5
20220702005541 69 236 2.0 11.0 0.00 0.00 0.00 66 1016.6
20220702005040 68 201 4.0 11.0 0.00 0.00 0.00 67 1016.6
20220702004552 68 159 4.0 12.0 0.00 0.00 0.00 66 1016.7
20220702004040 68 239 6.0 12.0 0.00 0.00 0.00 66 1016.8
20220702003544 68 211 4.0 10.0 0.00 0.00 0.00 67 1016.8
20220702003049 68 232 4.0 11.0 0.00 0.00 0.00 67 1016.8
20220702002541 68 242 3.0 11.0 0.00 0.00 0.00 66 1016.9
20220702002043 68 202 4.0 10.0 0.00 0.00 0.00 66 1016.9
20220702001556 69 313 4.0 9.0 0.00 0.00 0.00 66 1017.0
20220702001044 69 238 3.0 13.0 0.00 0.00 0.00 66 1017.0
20220702000540 69 123 4.0 13.0 0.00 0.00 0.00 64 1017.1
20220702000054 69 271 2.0 8.0 0.00 0.00 0.00 66 1017.1
20220701235541 69 222 2.0 8.0 0.00 0.00 0.00 65 1017.2
20220701235042 69 182 3.0 12.0 0.00 0.00 0.00 65 1017.3
20220701234601 68 152 5.0 12.0 0.00 0.00 0.00 65 1017.3
20220701234044 68 186 4.0 10.0 0.00 0.00 0.00 64 1017.3
20220701233541 68 215 4.0 9.0 0.00 0.00 0.00 64 1017.3
20220701233053 68 115 4.0 10.0 0.00 0.00 0.00 65 1017.4
20220701232541 68 130 3.0 10.0 0.00 0.00 0.00 65 1017.5
20220701232040 68 98 3.0 12.0 0.00 0.00 0.00 64 1017.4
20220701231554 68 203 3.0 12.0 0.00 0.00 0.00 65 1017.4
20220701231041 68 237 3.0 10.0 0.00 0.00 0.00 66 1017.5
20220701230542 68 259 4.0 10.0 0.00 0.00 0.00 64 1017.6
20220701230101 68 159 4.0 10.0 0.00 0.00 0.00 65 1017.7